STARLINK-6347, 57359

Orbit data source: Space-Track

STARLINK-6347, 57359 is a payload satellite owned by SpaceX/Seattle (US) in LEO that was launched on Sun, 16 Jul 2023 UTC via an FALCON 9 launch vehicle from the Air Force Eastern Test Range (AFETR). Payload-class satellites include a variety of spacecraft equipped with specific instruments for various scientific and technological missions. These include communications satellites like Starlink; space stations such as the ISS; scientific satellites like the Hubble; Earth observation satellites from companies like Planet Labs, Umbra, and HawkEye 360; GPS; miniature CubeSats for education and research; and military/defense satellites.

Loading next visibility...
Identifier
57359, 2023-099AH
Orbit
LEO
Country
Flag of USUS
Related business
Manufacturer
SpaceX/Seattle
Mission
Operational Commercial Communications
Bus & Motor
STARLINK, Unknown motor
Mass
305 kg wet, ~290 kg dry
Launch date (UTC)
2023-07-16 (3 years ago)
Launch vehicle
FALCON 9
Launch site
Air Force Eastern Test Range (AFETR)
Object type
Payload
Rocket body
Debris
Shape & HBR
Box + 1 Pan, 10.1 m
Radar Cross Section
11.087 m², Large (>1 m²)

Expand to show TLE details & history
Last TLE update: 2 days ago

TLE from 2 days ago
0 STARLINK-6347
1 57359U 23099AH  26170.99133497  .00000504  00000-0  27855-4 0  9993
2 57359  43.0056  24.0557 0001905 269.9113  90.1520 15.27579830161842
Epoch: 2026-06-19T23:47Z
TLE epoch observation values (Epoch: 2026-06-19T23:47:31.341Z)
Latitude
-0.00004°
Longitude
118.96269°
Altitude
482.829 km
Speed
7.626 km/s
True Right ascension
01h 36m 13s
True Declination
0° 00' 00"
Sunlit
Object was in daylight at epoch
Visualization orbit readout
Latitude
Unknown
Longitude
Unknown
Altitude
Unknown
Speed
Unknown
Apparent Right ascension
Unknown
Apparent Declination
Unknown
Sunlit
N/A
Visualization observer readout
Local Sidereal Time
21:27:07
Azimuth
Unknown
Elevation
Unknown
Doppler factor
Unknown
Orbital elements
Apogee altitude
486.301 km
Perigee altitude
483.686 km
Semi-major axis
6,863.131 km
Eccentricity
0.00019
Inclination
43.0056°
RAAN
24.0557°
Arg. of periapsis
269.9113°
True anomaly
90.17383°
Mean anomaly
90.152°
Eccentric anomaly
90.16291°
Mean motion
3.81733 °/min
Orbital period
94.31 mins
BSTAR
0.000027855
Loading maneuver chart data...
Computing Atmospheric mass density...
Loading historical data...
Loading historical data...
Loading historical data...
Loading historical data...
Loading historical data...
Loading historical data...
Loading historical data...

Documentation

Showing up to 5 results
|